,,PA_Meas_PMT16A,,PR_Meas_QMR101_102,,RH_Meas_QMH101,,SR_Meas_QMS101,,TA_Meas_QMH101,,GenWind,,GenWind,
time,status,PA,status,PR,status,RH,status,SR,status,TA,status,DirAvg,status,SpdAvg,
2009-11-09, 00:00:04,VALID,916.005,VALID,0,VALID,97.5797,VALID,0.107441,VALID,20.4798,VALID,106,VALID,1.37383,
2009-11-09, 00:01:04,VALID,915.99,VALID,0,VALID,97.5569,VALID,0,VALID,20.4993,VALID,117,VALID,1.18633,
2009-11-09, 00:02:04,VALID,915.975,VALID,0,VALID,97.5873,VALID,0,VALID,20.5188,VALID,133,VALID,1.24023,
2009-11-09, 00:03:04,VALID,915.965,VALID,0,VALID,97.5797,VALID,0,VALID,20.4993,VALID,133,VALID,1.29609,
2009-11-09, 00:04:04,VALID,915.977,VALID,0,VALID,97.595,VALID,0,VALID,20.4993,VALID,128,VALID,0.933984,
2009-11-09, 00:05:04,VALID,915.961,VALID,0,VALID,97.5721,VALID,0,VALID,20.4993,VALID,96,VALID,1.06016,
2009-11-09, 00:06:04,VALID,915.929,VALID,0,VALID,97.5797,VALID,0.107441,VALID,20.5383,VALID,89,VALID,0.617578,
2009-11-09, 00:07:04,VALID,915.902,VALID,0,VALID,97.5873,VALID,0,VALID,20.5188,VALID,89,VALID,0.438672,
2009-11-09, 00:08:04,VALID,915.873,VALID,0,VALID,97.6026,VALID,0.107441,VALID,20.5383,VALID,89,VALID,0.864062,
2009-11-09, 00:09:04,VALID,915.87,VALID,0,VALID,97.5721,VALID,0,VALID,20.5188,VALID,89,VALID,0.554688,
2009-11-09, 00:10:04,VALID,915.824,VALID,0,VALID,97.5569,VALID,0,VALID,20.5188,VALID,89,VALID,0.369922,
2009-11-09, 00:11:04,VALID,915.847,VALID,0,VALID,97.5721,VALID,0,VALID,20.5383,VALID,104,VALID,0.867969,
2009-11-09, 00:12:04,VALID,915.822,VALID,0,VALID,97.5645,VALID,0.107441,VALID,20.4977,VALID,105,VALID,1.24063,
2009-11-09, 00:13:04,VALID,915.762,VALID,0,VALID,97.5721,VALID,0.107441,VALID,20.5188,VALID,105,VALID,0.536719,
2009-11-09, 00:14:04,VALID,915.77,VALID,0,VALID,97.5797,VALID,0,VALID,20.5789,VALID,105,VALID,0.678516,
2009-11-09, 00:15:04,VALID,915.734,VALID,0,VALID,97.5873,VALID,0,VALID,20.5578,VALID,105,VALID,0.567187,
2009-11-09, 00:16:04,VALID,915.706,VALID,0,VALID,97.5873,VALID,0,VALID,20.5578,VALID,105,VALID,0.433203,
2009-11-09, 00:17:04,VALID,915.689,VALID,0,VALID,97.5721,VALID,0.107441,VALID,20.5773,VALID,105,VALID,0.844141,
2009-11-09, 00:18:04,VALID,915.691,VALID,0,VALID,97.5645,VALID,0,VALID,20.5594,VALID,105,VALID,0.211328,
2009-11-09, 00:19:04,VALID,915.674,VALID,0,VALID,97.5492,VALID,0,VALID,20.5383,VALID,105,VALID,0.663672,
2009-11-09, 00:20:04,VALID,915.632,VALID,0,VALID,97.5873,VALID,0.107441,VALID,20.5383,VALID,105,VALID,0.248047,
2009-11-09, 00:21:04,VALID,915.642,VALID,0,VALID,97.5492,VALID,0,VALID,20.5578,VALID,105,VALID,0.518359,
2009-11-09, 00:22:04,VALID,915.62,VALID,0,VALID,97.5721,VALID,0,VALID,20.5383,VALID,105,VALID,1.12969,
2009-11-09, 00:23:04,VALID,915.631,VALID,0,VALID,97.5492,VALID,0,VALID,20.5383,VALID,106,VALID,0.690234,
2009-11-09, 00:24:04,VALID,915.612,VALID,0,VALID,97.5797,VALID,0,VALID,20.5773,VALID,116,VALID,1.03828,
2009-11-09, 00:25:04,VALID,915.597,VALID,0,VALID,97.5721,VALID,0,VALID,20.5773,VALID,179,VALID,0.859766,
2009-11-09, 00:26:04,VALID,915.588,VALID,0,VALID,97.5569,VALID,0,VALID,20.5789,VALID,180,VALID,0.994922,
2009-11-09, 00:27:04,VALID,915.542,VALID,0,VALID,97.5492,VALID,0.107441,VALID,20.5773,VALID,167,VALID,1.10156,
2009-11-09, 00:28:04,VALID,915.509,VALID,0,VALID,97.5797,VALID,0,VALID,20.5984,VALID,176,VALID,0.955469,
2009-11-09, 00:29:04,VALID,915.455,VALID,0,VALID,97.5721,VALID,0,VALID,20.5773,VALID,137,VALID,1.35703,
2009-11-09, 00:30:04,VALID,915.391,VALID,0,VALID,97.5645,VALID,0,VALID,20.5773,VALID,163,VALID,1.19258,
2009-11-09, 00:31:04,VALID,915.357,VALID,0,VALID,97.5569,VALID,0,VALID,20.6163,VALID,160,VALID,0.820703,
2009-11-09, 00:32:04,VALID,915.371,VALID,0,VALID,97.5873,VALID,0,VALID,20.5968,VALID,129,VALID,1.11328,
2009-11-09, 00:33:04,VALID,915.309,VALID,0,VALID,97.5569,VALID,0.107441,VALID,20.5952,VALID,151,VALID,0.814453,
2009-11-09, 00:34:04,VALID,915.291,VALID,0,VALID,97.5492,VALID,0,VALID,20.5984,VALID,135,VALID,1.75234,
2009-11-09, 00:35:04,VALID,915.261,VALID,0,VALID,97.5416,VALID,0,VALID,20.5578,VALID,124,VALID,1.39648,
2009-11-09, 00:36:04,VALID,915.211,VALID,0,VALID,97.5187,VALID,0.107441,VALID,20.5773,VALID,122,VALID,1.10039,
2009-11-09, 00:37:04,VALID,915.238,VALID,0,VALID,97.5492,VALID,0,VALID,20.5562,VALID,154,VALID,1.35508,
2009-11-09, 00:38:04,VALID,915.141,VALID,0,VALID,97.5187,VALID,0,VALID,20.5578,VALID,137,VALID,1.62461,
2009-11-09, 00:39:04,VALID,915.127,VALID,0,VALID,97.5264,VALID,0.107441,VALID,20.5172,VALID,134,VALID,1.31094,
2009-11-09, 00:40:04,VALID,915.12,VALID,0,VALID,97.5416,VALID,0,VALID,20.5578,VALID,133,VALID,0.918359,
2009-11-09, 00:41:04,VALID,915.102,VALID,0,VALID,97.5416,VALID,0.107441,VALID,20.5773,VALID,133,VALID,0.710547,
2009-11-09, 00:42:04,VALID,915.063,VALID,0,VALID,97.5569,VALID,0.107441,VALID,20.5562,VALID,182,VALID,0.972656,
2009-11-09, 00:43:04,VALID,915.076,VALID,0,VALID,97.5416,VALID,0.107441,VALID,20.5773,VALID,142,VALID,1.16953,
2009-11-09, 00:44:04,VALID,915.018,VALID,0,VALID,97.5492,VALID,0,VALID,20.5773,VALID,145,VALID,1.24375,
2009-11-09, 00:45:04,VALID,915.017,VALID,0,VALID,97.534,VALID,0,VALID,20.5773,VALID,209,VALID,0.837109,
2009-11-09, 00:46:04,VALID,914.97,VALID,0,VALID,97.5569,VALID,0.107441,VALID,20.5562,VALID,208,VALID,1.32539,
2009-11-09, 00:47:04,VALID,914.989,VALID,0,VALID,97.5416,VALID,0.107441,VALID,20.5562,VALID,169,VALID,0.726953,
2009-11-09, 00:48:04,VALID,914.97,VALID,0,VALID,97.5721,VALID,0,VALID,20.5968,VALID,67,VALID,0.627734,
2009-11-09, 00:49:04,VALID,914.979,VALID,0,VALID,97.5569,VALID,0,VALID,20.5773,VALID,67,VALID,0.529688,
2009-11-09, 00:50:04,VALID,914.95,VALID,0,VALID,97.5187,VALID,0,VALID,20.5773,VALID,74,VALID,1.2168,
2009-11-09, 00:51:04,VALID,914.951,VALID,0,VALID,97.5264,VALID,0.107441,VALID,20.5968,VALID,177,VALID,0.734375,
2009-11-09, 00:52:04,VALID,914.898,VALID,0,VALID,97.5416,VALID,0,VALID,20.5968,VALID,177,VALID,1.31523,
2009-11-09, 00:53:04,VALID,914.918,VALID,0,VALID,97.5416,VALID,0.107441,VALID,20.5773,VALID,177,VALID,0.672656,
2009-11-09, 00:54:04,VALID,914.89,VALID,0,VALID,97.5416,VALID,0,VALID,20.5562,VALID,166,VALID,0.945703,
2009-11-09, 00:55:04,VALID,914.884,VALID,0,VALID,97.5187,VALID,0.107441,VALID,20.5773,VALID,166,VALID,1.16289,
2009-11-09, 00:56:04,VALID,914.857,VALID,0,VALID,97.5035,VALID,0.107441,VALID,20.5562,VALID,166,VALID,1.43398,
2009-11-09, 00:57:04,VALID,914.835,VALID,0,VALID,97.5187,VALID,0,VALID,20.5578,VALID,107,VALID,0.712109,
2009-11-09, 00:58:04,VALID,914.846,VALID,0,VALID,97.5187,VALID,0.107441,VALID,20.5578,VALID,107,VALID,1.27461,
2009-11-09, 00:59:04,VALID,914.804,VALID,0,VALID,97.5111,VALID,0.107441,VALID,20.5578,VALID,154,VALID,1.73164,
2009-11-09, 01:00:04,VALID,914.81,VALID,0,VALID,97.4806,VALID,0.107441,VALID,20.5367,VALID,91,VALID,0.924219,
2009-11-09, 01:01:04,VALID,914.779,VALID,0,VALID,97.4882,VALID,0.107441,VALID,20.5367,VALID,92,VALID,1.21289,
2009-11-09, 01:02:04,VALID,914.769,VALID,0,VALID,97.473,VALID,0.107441,VALID,20.5367,VALID,130,VALID,0.840234,
2009-11-09, 01:03:04,VALID,914.787,VALID,0,VALID,97.4577,VALID,0.107441,VALID,20.5367,VALID,135,VALID,1.12852,
2009-11-09, 01:04:04,VALID,914.745,VALID,0,VALID,97.4501,VALID,0,VALID,20.5383,VALID,135,VALID,1.41484,
2009-11-09, 01:05:04,VALID,914.749,VALID,0,VALID,97.412,VALID,0.107441,VALID,20.5383,VALID,53,VALID,1.32422,
2009-11-09, 01:06:04,VALID,914.76,VALID,0,VALID,97.4425,VALID,0.107441,VALID,20.5578,VALID,53,VALID,1.14336,
2009-11-09, 01:07:04,VALID,914.711,VALID,0,VALID,97.4196,VALID,0.107441,VALID,20.5383,VALID,53,VALID,0.892578,
2009-11-09, 01:08:04,VALID,914.708,VALID,0,VALID,97.3815,VALID,0.107441,VALID,20.5172,VALID,53,VALID,1.12852,
2009-11-09, 01:09:04,VALID,914.703,VALID,0,VALID,97.4273,VALID,0,VALID,20.5383,VALID,53,VALID,1.12773,
2009-11-09, 01:10:04,VALID,914.694,VALID,0,VALID,97.3891,VALID,0,VALID,20.5172,VALID,53,VALID,0.704297,
2009-11-09, 01:11:04,VALID,914.665,VALID,0,VALID,97.3815,VALID,0,VALID,20.5172,VALID,53,VALID,0.800391,
2009-11-09, 01:12:04,VALID,914.635,VALID,0,VALID,97.3815,VALID,0.107441,VALID,20.5172,VALID,53,VALID,0.586328,
2009-11-09, 01:13:04,VALID,914.646,VALID,0,VALID,97.3815,VALID,0.107441,VALID,20.5188,VALID,53,VALID,0.516016,
2009-11-09, 01:14:04,VALID,914.637,VALID,0,VALID,97.3968,VALID,0,VALID,20.4782,VALID,53,VALID,0.539453,
2009-11-09, 01:15:04,VALID,914.59,VALID,0,VALID,97.4349,VALID,0.107441,VALID,20.5188,VALID,53,VALID,0.690625,
2009-11-09, 01:16:04,VALID,914.569,VALID,0,VALID,97.4501,VALID,0,VALID,20.5188,VALID,53,VALID,0.874219,
2009-11-09, 01:17:04,VALID,914.57,VALID,0,VALID,97.4196,VALID,0.107441,VALID,20.4782,VALID,53,VALID,0.815625,
2009-11-09, 01:18:04,VALID,914.553,VALID,0,VALID,97.3739,VALID,0.107441,VALID,20.4798,VALID,53,VALID,0.845703,
2009-11-09, 01:19:04,VALID,914.516,VALID,0,VALID,97.3739,VALID,0,VALID,20.4798,VALID,53,VALID,1.26367,
2009-11-09, 01:20:04,VALID,914.56,VALID,0,VALID,97.3968,VALID,0,VALID,20.4408,VALID,53,VALID,1.16914,
2009-11-09, 01:21:04,VALID,914.536,VALID,0,VALID,97.412,VALID,0,VALID,20.4002,VALID,53,VALID,0.837891,
2009-11-09, 01:22:04,VALID,914.538,VALID,0,VALID,97.4196,VALID,0,VALID,20.4018,VALID,53,VALID,0.944141,
2009-11-09, 01:23:04,VALID,914.566,VALID,0,VALID,97.4273,VALID,0,VALID,20.4213,VALID,53,VALID,0.666797,
2009-11-09, 01:24:04,VALID,914.555,VALID,0,VALID,97.4654,VALID,0,VALID,20.4213,VALID,53,VALID,0.686328,
2009-11-09, 01:25:04,VALID,914.531,VALID,0,VALID,97.4273,VALID,0,VALID,20.4018,VALID,53,VALID,1.03008,
2009-11-09, 01:26:04,VALID,914.513,VALID,0,VALID,97.4425,VALID,0,VALID,20.3823,VALID,53,VALID,0.837109,
2009-11-09, 01:27:04,VALID,914.536,VALID,0,VALID,97.4273,VALID,0,VALID,20.3433,VALID,53,VALID,0.835547,
2009-11-09, 01:28:04,VALID,914.503,VALID,0,VALID,97.4882,VALID,0,VALID,20.3823,VALID,53,VALID,0.660156,
2009-11-09, 01:29:04,VALID,914.538,VALID,0,VALID,97.473,VALID,0,VALID,20.3628,VALID,53,VALID,0.719531,
2009-11-09, 01:30:04,VALID,914.518,VALID,0,VALID,97.4882,VALID,0,VALID,20.3628,VALID,53,VALID,0.715234,
2009-11-09, 01:31:04,VALID,914.511,VALID,0,VALID,97.473,VALID,0.107441,VALID,20.3628,VALID,53,VALID,0.774609,
2009-11-09, 01:32:04,VALID,914.52,VALID,0,VALID,97.4806,VALID,0.107441,VALID,20.3823,VALID,53,VALID,0.735937,
2009-11-09, 01:33:04,VALID,914.545,VALID,0,VALID,97.534,VALID,0,VALID,20.3823,VALID,53,VALID,0.872266,
2009-11-09, 01:34:04,VALID,914.551,VALID,0,VALID,97.473,VALID,0.107441,VALID,20.3628,VALID,53,VALID,0.812109,
2009-11-09, 01:35:04,VALID,914.555,VALID,0,VALID,97.4959,VALID,0,VALID,20.3628,VALID,53,VALID,0.567187,
2009-11-09, 01:36:04,VALID,914.573,VALID,0,VALID,97.4959,VALID,0,VALID,20.3238,VALID,53,VALID,0.49375,
2009-11-09, 01:37:04,VALID,914.554,VALID,0,VALID,97.4959,VALID,0.107441,VALID,20.3238,VALID,53,VALID,0.401563,
2009-11-09, 01:38:04,VALID,914.565,VALID,0,VALID,97.5492,VALID,0.107441,VALID,20.3238,VALID,53,VALID,0.309766,
2009-11-09, 01:39:04,VALID,914.551,VALID,0,VALID,97.5111,VALID,0.107441,VALID,20.3238,VALID,53,VALID,0.411719,
2009-11-09, 01:40:04,VALID,914.569,VALID,0,VALID,97.4959,VALID,0.107441,VALID,20.3043,VALID,53,VALID,0.423438,
2009-11-09, 01:41:04,VALID,914.562,VALID,0,VALID,97.5035,VALID,0,VALID,20.2848,VALID,53,VALID,0.341406,
2009-11-09, 01:42:04,VALID,914.559,VALID,0,VALID,97.5187,VALID,0,VALID,20.3043,VALID,53,VALID,0.0785156,
2009-11-09, 01:43:04,VALID,914.555,VALID,0,VALID,97.5187,VALID,0,VALID,20.3043,VALID,53,VALID,0.326172,
2009-11-09, 01:44:04,VALID,914.568,VALID,0,VALID,97.5569,VALID,0,VALID,20.3043,VALID,53,VALID,0.235938,
2009-11-09, 01:45:04,VALID,914.544,VALID,0,VALID,97.5264,VALID,0,VALID,20.3043,VALID,53,VALID,0.143359,
2009-11-09, 01:46:04,VALID,914.543,VALID,0,VALID,97.5492,VALID,0,VALID,20.3043,VALID,53,VALID,0.308594,
2009-11-09, 01:47:04,VALID,914.548,VALID,0,VALID,97.5797,VALID,0.107441,VALID,20.3027,VALID,53,VALID,0.350391,
2009-11-09, 01:48:04,VALID,914.55,VALID,0,VALID,97.5492,VALID,0,VALID,20.3238,VALID,53,VALID,0.560547,
2009-11-09, 01:49:04,VALID,914.547,VALID,0,VALID,97.5569,VALID,0,VALID,20.3238,VALID,53,VALID,0.7875,
2009-11-09, 01:50:04,VALID,914.496,VALID,0,VALID,97.6102,VALID,0,VALID,20.3433,VALID,53,VALID,0.592969,
2009-11-09, 01:51:04,VALID,914.526,VALID,0,VALID,97.5797,VALID,0,VALID,20.3628,VALID,53,VALID,0.532812,
2009-11-09, 01:52:04,VALID,914.508,VALID,0,VALID,97.5873,VALID,0.107441,VALID,20.3823,VALID,53,VALID,0.41875,
2009-11-09, 01:53:04,VALID,914.547,VALID,0,VALID,97.6102,VALID,0.107441,VALID,20.3807,VALID,53,VALID,0.373047,
2009-11-09, 01:54:04,VALID,914.554,VALID,0,VALID,97.5797,VALID,0,VALID,20.4018,VALID,53,VALID,0.3,
2009-11-09, 01:55:04,VALID,914.547,VALID,0,VALID,97.6178,VALID,0,VALID,20.4213,VALID,53,VALID,0.2,
2009-11-09, 01:56:04,VALID,914.531,VALID,0,VALID,97.6407,VALID,0.107441,VALID,20.4392,VALID,53,VALID,0.19375,
2009-11-09, 01:57:04,VALID,914.538,VALID,0,VALID,97.6102,VALID,0,VALID,20.4603,VALID,53,VALID,0,
2009-11-09, 01:58:04,VALID,914.524,VALID,0,VALID,97.6026,VALID,0.107441,VALID,20.4798,VALID,53,VALID,0,
2009-11-09, 01:59:04,VALID,914.472,VALID,0,VALID,97.595,VALID,0.107441,VALID,20.4993,VALID,53,VALID,0.458594,
2009-11-09, 02:00:04,VALID,914.483,VALID,0,VALID,97.5797,VALID,0.107441,VALID,20.4587,VALID,53,VALID,0.413672,
2009-11-09, 02:01:04,VALID,914.433,VALID,0,VALID,97.5492,VALID,0.107441,VALID,20.4603,VALID,53,VALID,0.173828,
2009-11-09, 02:02:04,VALID,914.466,VALID,0,VALID,97.5492,VALID,0.107441,VALID,20.4408,VALID,53,VALID,0.221094,
2009-11-09, 02:03:04,VALID,914.45,VALID,0,VALID,97.5645,VALID,0.107441,VALID,20.4408,VALID,53,VALID,0.202344,
2009-11-09, 02:04:04,VALID,914.447,VALID,0,VALID,97.5569,VALID,0,VALID,20.4603,VALID,53,VALID,0.378906,
2009-11-09, 02:05:04,VALID,914.424,VALID,0,VALID,97.5645,VALID,0,VALID,20.4213,VALID,53,VALID,0.217969,
2009-11-09, 02:06:04,VALID,914.403,VALID,0,VALID,97.5569,VALID,0.107441,VALID,20.4018,VALID,53,VALID,0.580469,
2009-11-09, 02:07:04,VALID,914.426,VALID,0,VALID,97.5416,VALID,0,VALID,20.3612,VALID,53,VALID,0.587891,
2009-11-09, 02:08:04,VALID,914.408,VALID,0,VALID,97.5569,VALID,0.107441,VALID,20.3628,VALID,53,VALID,0.312109,
2009-11-09, 02:09:04,VALID,914.39,VALID,0,VALID,97.5645,VALID,0,VALID,20.3838,VALID,53,VALID,0.498437,
2009-11-09, 02:10:04,VALID,914.392,VALID,0,VALID,97.595,VALID,0,VALID,20.3628,VALID,53,VALID,0.323828,
2009-11-09, 02:11:04,VALID,914.399,VALID,0,VALID,97.5721,VALID,0,VALID,20.3433,VALID,53,VALID,0.276172,
2009-11-09, 02:12:04,VALID,914.395,VALID,0,VALID,97.5187,VALID,0,VALID,20.3043,VALID,53,VALID,0.577734,
2009-11-09, 02:13:04,VALID,914.388,VALID,0,VALID,97.5264,VALID,0,VALID,20.2848,VALID,53,VALID,0.444531,
2009-11-09, 02:14:04,VALID,914.402,VALID,0,VALID,97.5111,VALID,0.107441,VALID,20.2263,VALID,53,VALID,0.637891,
2009-11-09, 02:15:04,VALID,914.372,VALID,0,VALID,97.5187,VALID,0,VALID,20.2068,VALID,53,VALID,0.432813,
2009-11-09, 02:16:04,VALID,914.371,VALID,0,VALID,97.4959,VALID,0,VALID,20.1693,VALID,53,VALID,0.348828,
2009-11-09, 02:17:04,VALID,914.359,VALID,0,VALID,97.5187,VALID,0,VALID,20.1093,VALID,53,VALID,0,
2009-11-09, 02:18:04,VALID,914.343,VALID,0,VALID,97.5721,VALID,0,VALID,20.0898,VALID,53,VALID,0.346875,
2009-11-09, 02:19:04,VALID,914.359,VALID,0,VALID,97.5797,VALID,0,VALID,20.0898,VALID,53,VALID,0.115625,
2009-11-09, 02:20:04,VALID,914.331,VALID,0,VALID,97.6102,VALID,0,VALID,20.0898,VALID,53,VALID,0.166797,
2009-11-09, 02:21:04,VALID,914.333,VALID,0,VALID,97.6255,VALID,0,VALID,20.0898,VALID,53,VALID,0.0160156,
2009-11-09, 02:22:04,VALID,914.338,VALID,0,VALID,97.595,VALID,0,VALID,20.0898,VALID,53,VALID,0,
2009-11-09, 02:23:04,VALID,914.296,VALID,0,VALID,97.6102,VALID,0,VALID,20.0898,VALID,53,VALID,0,
2009-11-09, 02:24:04,VALID,914.346,VALID,0,VALID,97.6407,VALID,0.107441,VALID,20.0898,VALID,53,VALID,0,
2009-11-09, 02:25:04,VALID,914.326,VALID,0,VALID,97.6407,VALID,0,VALID,20.1093,VALID,53,VALID,0,
2009-11-09, 02:26:04,VALID,914.322,VALID,0,VALID,97.6255,VALID,0,VALID,20.1303,VALID,53,VALID,0,
2009-11-09, 02:27:04,VALID,914.345,VALID,0,VALID,97.6407,VALID,0,VALID,20.1093,VALID,53,VALID,0.185547,
2009-11-09, 02:28:04,VALID,914.355,VALID,0,VALID,97.595,VALID,0,VALID,20.1108,VALID,53,VALID,0,
2009-11-09, 02:29:04,VALID,914.381,VALID,0,VALID,97.5721,VALID,0,VALID,20.0508,VALID,53,VALID,0.482422,
2009-11-09, 02:30:04,VALID,914.401,VALID,0,VALID,97.6178,VALID,0,VALID,20.0118,VALID,53,VALID,0.501953,
2009-11-09, 02:31:04,VALID,914.375,VALID,0,VALID,97.6255,VALID,0,VALID,20.0313,VALID,53,VALID,0.136328,
2009-11-09, 02:32:04,VALID,914.386,VALID,0,VALID,97.6331,VALID,0,VALID,20.0118,VALID,53,VALID,0.217187,
2009-11-09, 02:33:04,VALID,914.346,VALID,0,VALID,97.6255,VALID,0,VALID,20.0118,VALID,53,VALID,0.174219,
2009-11-09, 02:34:04,VALID,914.353,VALID,0,VALID,97.6331,VALID,0,VALID,20.0313,VALID,53,VALID,0.00195313,
2009-11-09, 02:35:04,VALID,914.298,VALID,0,VALID,97.6331,VALID,0,VALID,20.0328,VALID,53,VALID,0,
2009-11-09, 02:36:04,VALID,914.293,VALID,0,VALID,97.5873,VALID,0,VALID,19.9728,VALID,53,VALID,0,
2009-11-09, 02:37:04,VALID,914.253,VALID,0,VALID,97.6407,VALID,0,VALID,19.9533,VALID,53,VALID,0,
2009-11-09, 02:38:04,VALID,914.221,VALID,0,VALID,97.6712,VALID,0,VALID,19.9923,VALID,53,VALID,0,
2009-11-09, 02:39:04,VALID,914.209,VALID,0,VALID,97.6712,VALID,0,VALID,20.0118,VALID,53,VALID,0,
2009-11-09, 02:40:04,VALID,914.196,VALID,0,VALID,97.6712,VALID,0,VALID,20.0523,VALID,53,VALID,0,
2009-11-09, 02:41:04,VALID,914.174,VALID,0,VALID,97.6407,VALID,0,VALID,19.9923,VALID,53,VALID,0,
2009-11-09, 02:42:04,VALID,914.18,VALID,0,VALID,97.6026,VALID,0,VALID,19.9548,VALID,53,VALID,0,
2009-11-09, 02:43:04,VALID,914.147,VALID,0,VALID,97.5645,VALID,0,VALID,19.9353,VALID,53,VALID,0,
2009-11-09, 02:44:04,VALID,914.129,VALID,0,VALID,97.5492,VALID,0,VALID,19.8573,VALID,53,VALID,0,
2009-11-09, 02:45:04,VALID,914.147,VALID,0,VALID,97.5264,VALID,0,VALID,19.7778,VALID,53,VALID,0.563281,
2009-11-09, 02:46:04,VALID,914.119,VALID,0,VALID,97.473,VALID,0,VALID,19.6998,VALID,53,VALID,0.727344,
2009-11-09, 02:47:04,VALID,914.11,VALID,0,VALID,97.5187,VALID,0,VALID,19.6413,VALID,53,VALID,0.633594,
2009-11-09, 02:48:04,VALID,914.122,VALID,0,VALID,97.5569,VALID,0,VALID,19.6218,VALID,53,VALID,0.570313,
2009-11-09, 02:49:04,VALID,914.082,VALID,0,VALID,97.6102,VALID,0,VALID,19.6023,VALID,53,VALID,0.513672,
2009-11-09, 02:50:04,VALID,914.07,VALID,0,VALID,97.7093,VALID,0.107441,VALID,19.6608,VALID,53,VALID,0.647266,
2009-11-09, 02:51:04,VALID,914.051,VALID,0,VALID,97.7398,VALID,0,VALID,19.7208,VALID,53,VALID,0.403906,
2009-11-09, 02:52:04,VALID,914.049,VALID,0,VALID,97.7017,VALID,0,VALID,19.6998,VALID,53,VALID,0.239844,
2009-11-09, 02:53:04,VALID,914.043,VALID,0,VALID,97.6788,VALID,0,VALID,19.6803,VALID,53,VALID,0.173828,
2009-11-09, 02:54:04,VALID,914.027,VALID,0,VALID,97.6636,VALID,0,VALID,19.6608,VALID,53,VALID,0,
2009-11-09, 02:55:04,VALID,913.986,VALID,0,VALID,97.7017,VALID,0,VALID,19.6608,VALID,53,VALID,0.115234,
2009-11-09, 02:56:04,VALID,914.006,VALID,0,VALID,97.7017,VALID,0,VALID,19.6818,VALID,53,VALID,0,
2009-11-09, 02:57:04,VALID,913.954,VALID,0,VALID,97.7246,VALID,0,VALID,19.7013,VALID,53,VALID,0,
2009-11-09, 02:58:04,VALID,913.951,VALID,0,VALID,97.6865,VALID,0,VALID,19.7013,VALID,53,VALID,0,
2009-11-09, 02:59:04,VALID,913.956,VALID,0,VALID,97.6636,VALID,0,VALID,19.6818,VALID,53,VALID,0,
2009-11-09, 03:00:04,VALID,913.93,VALID,0,VALID,97.6941,VALID,0,VALID,19.6818,VALID,53,VALID,0,
2009-11-09, 03:01:04,VALID,913.907,VALID,0,VALID,97.7093,VALID,0,VALID,19.7013,VALID,53,VALID,0.00273437,
2009-11-09, 03:02:04,VALID,913.883,VALID,0,VALID,97.6788,VALID,0,VALID,19.6608,VALID,53,VALID,0.315234,
2009-11-09, 03:03:04,VALID,913.857,VALID,0,VALID,97.7322,VALID,0,VALID,19.6818,VALID,53,VALID,0.449609,
2009-11-09, 03:04:04,VALID,913.828,VALID,0,VALID,97.7932,VALID,0,VALID,19.7598,VALID,53,VALID,0.272656,
2009-11-09, 03:05:04,VALID,913.831,VALID,0,VALID,97.7551,VALID,0,VALID,19.7778,VALID,53,VALID,0.332422,
2009-11-09, 03:06:04,VALID,913.839,VALID,0,VALID,97.7551,VALID,0,VALID,19.8168,VALID,53,VALID,0.301562,
2009-11-09, 03:07:04,VALID,913.842,VALID,0,VALID,97.7398,VALID,0,VALID,19.8183,VALID,53,VALID,0.371875,
2009-11-09, 03:08:04,VALID,913.826,VALID,0,VALID,97.7398,VALID,0,VALID,19.7973,VALID,53,VALID,0.227734,
2009-11-09, 03:09:04,VALID,913.838,VALID,0,VALID,97.7779,VALID,0,VALID,19.8363,VALID,53,VALID,0.269141,
2009-11-09, 03:10:04,VALID,913.86,VALID,0,VALID,97.7627,VALID,0.107441,VALID,19.8558,VALID,53,VALID,0.212891,
2009-11-09, 03:11:04,VALID,913.847,VALID,0,VALID,97.7398,VALID,0,VALID,19.8948,VALID,53,VALID,0,
2009-11-09, 03:12:04,VALID,913.843,VALID,0,VALID,97.7474,VALID,0,VALID,19.8948,VALID,53,VALID,0.308984,
2009-11-09, 03:13:04,VALID,913.844,VALID,0,VALID,97.7398,VALID,0,VALID,19.8948,VALID,53,VALID,0.566016,
2009-11-09, 03:14:04,VALID,913.851,VALID,0,VALID,97.7474,VALID,0,VALID,19.8753,VALID,53,VALID,0.569531,
2009-11-09, 03:15:04,VALID,913.844,VALID,0,VALID,97.7398,VALID,0,VALID,19.8753,VALID,53,VALID,0.491406,
2009-11-09, 03:16:04,VALID,913.857,VALID,0,VALID,97.7398,VALID,0,VALID,19.9143,VALID,53,VALID,0.324219,
2009-11-09, 03:17:04,VALID,913.819,VALID,0,VALID,97.7551,VALID,0.107441,VALID,19.9338,VALID,53,VALID,0.363672,
2009-11-09, 03:18:04,VALID,913.805,VALID,0,VALID,97.7246,VALID,0,VALID,19.9143,VALID,53,VALID,0.464063,
2009-11-09, 03:19:04,VALID,913.808,VALID,0,VALID,97.7093,VALID,0,VALID,19.8948,VALID,53,VALID,0.925391,
2009-11-09, 03:20:04,VALID,913.819,VALID,0,VALID,97.7551,VALID,0,VALID,19.9533,VALID,53,VALID,1.04336,
2009-11-09, 03:21:04,VALID,913.812,VALID,0,VALID,97.7551,VALID,0,VALID,19.9728,VALID,53,VALID,0.841016,
2009-11-09, 03:22:04,VALID,913.84,VALID,0,VALID,97.7246,VALID,0,VALID,19.9923,VALID,53,VALID,0.685547,
2009-11-09, 03:23:04,VALID,913.822,VALID,0,VALID,97.7474,VALID,0,VALID,19.9728,VALID,53,VALID,0.689062,
2009-11-09, 03:24:04,VALID,913.831,VALID,0,VALID,97.7398,VALID,0,VALID,19.9533,VALID,53,VALID,0.477734,
2009-11-09, 03:25:04,VALID,913.792,VALID,0,VALID,97.7322,VALID,0,VALID,19.9533,VALID,53,VALID,0.414844,
2009-11-09, 03:26:04,VALID,913.808,VALID,0,VALID,97.7093,VALID,0,VALID,19.9728,VALID,53,VALID,0.362109,
2009-11-09, 03:27:04,VALID,913.829,VALID,0,VALID,97.7322,VALID,0,VALID,19.9728,VALID,53,VALID,0.424219,
2009-11-09, 03:28:04,VALID,913.84,VALID,0,VALID,97.7398,VALID,0,VALID,19.9728,VALID,53,VALID,0.322266,
2009-11-09, 03:29:04,VALID,913.821,VALID,0,VALID,97.7551,VALID,0,VALID,19.9938,VALID,53,VALID,0.523047,
2009-11-09, 03:30:04,VALID,913.865,VALID,0,VALID,97.7322,VALID,0,VALID,19.9923,VALID,53,VALID,0.484766,
2009-11-09, 03:31:04,VALID,913.847,VALID,0,VALID,97.7246,VALID,0,VALID,19.9728,VALID,53,VALID,0.524609,
2009-11-09, 03:32:04,VALID,913.87,VALID,0,VALID,97.7474,VALID,0,VALID,19.9923,VALID,53,VALID,0.419922,
2009-11-09, 03:33:04,VALID,913.843,VALID,0,VALID,97.7322,VALID,0.107441,VALID,19.9923,VALID,53,VALID,0.352344,
2009-11-09, 03:34:04,VALID,913.86,VALID,0,VALID,97.7398,VALID,0,VALID,20.0118,VALID,53,VALID,0.591406,
2009-11-09, 03:35:04,VALID,913.843,VALID,0,VALID,97.7322,VALID,0,VALID,20.0118,VALID,53,VALID,0.147656,
2009-11-09, 03:36:04,VALID,913.86,VALID,0,VALID,97.7322,VALID,0,VALID,20.0103,VALID,53,VALID,0.216406,
2009-11-09, 03:37:04,VALID,913.845,VALID,0,VALID,97.7551,VALID,0,VALID,20.0508,VALID,53,VALID,0.723437,
2009-11-09, 03:38:04,VALID,913.87,VALID,0,VALID,97.7398,VALID,0,VALID,20.0688,VALID,53,VALID,0.337891,
2009-11-09, 03:39:04,VALID,913.906,VALID,0,VALID,97.7169,VALID,0,VALID,20.0703,VALID,53,VALID,0.449219,
2009-11-09, 03:40:04,VALID,913.896,VALID,0,VALID,97.7093,VALID,0,VALID,20.0508,VALID,53,VALID,0.894141,
2009-11-09, 03:41:04,VALID,913.914,VALID,0,VALID,97.7093,VALID,0,VALID,20.0313,VALID,53,VALID,0.782422,
2009-11-09, 03:42:04,VALID,913.875,VALID,0,VALID,97.7169,VALID,0,VALID,20.0118,VALID,53,VALID,0.319531,
2009-11-09, 03:43:04,VALID,913.902,VALID,0,VALID,97.7246,VALID,0,VALID,20.0313,VALID,53,VALID,0.411328,